Weather History for Debrecen, Hungary

Change the Weather History Date:

Wednesday, March 6, 2013

  Actual Average Record
Temperature  
Mean Temperature 42 °F -  
Max Temperature 57 °F 53 °F - ()
Min Temperature 28 °F 35 °F - ()
Degree Days  
Heating Degree Days 22    
Moisture  
Dew Point 29 °F    
Average Humidity 51    
Maximum Humidity 75    
Minimum Humidity 38    
Precipitation  
Precipitation 0.00 in 0.05 in - ()
Sea Level Pressure  
Sea Level Pressure 30.06 in    
Wind  
Wind Speed 9 mph ()    
Max Wind Speed 21 mph    
Max Gust Speed 30 mph    
Visibility 8.0 miles    
Events      
T = Trace of Precipitation, MM = Missing Value Source: Averaged Metar Reports

Daily Weather History Graph

Daily Weather History Graph

Search for Another Location

Airport:

Trip Planner

Search our weather history database for the weather conditions in past years. The results will help you decide how hot, cold, wet, or windy it might be!

Date:

Astronomy

Mar. 06, 2013 Rise Set
Actual Time 6:04 AM CET 5:25 PM CET
Civil Twilight 5:33 AM CET 5:56 PM CET
Nautical Twilight 4:58 AM CET 6:32 PM CET
Astronomical Twilight 4:22 AM CET 7:08 PM CET
Moon 2:14 AM CET (3/6) 11:30 AM CET (3/6)
Length of Visible Light 12h 22m
Length of Day
11h 21m
Waning Crescent, 33% of the Moon is Illuminated
Mar 6
Waning Crescent
Mar 11
New
Mar 19
First Quarter
Mar 27
Full
Apr 3
Last Quarter

Hourly Weather History & Observations

Time (CET) Temp. Windchill Dew Point Humidity Pressure Visibility Wind Dir Wind Speed Gust Speed Precip Events Conditions
1:00 AM 32 °F - 23 °F 57% 30.22 in - ENE 4.5 mph - -  
5:15 AM 30.2 °F 24.3 °F 23.0 °F 75% 30.15 in - East 5.8 mph - N/A   Clear
5:45 AM 30.2 °F 24.3 °F 23.0 °F 75% 30.12 in - ENE 5.8 mph - N/A   Clear
6:00 AM - - - N/A% - - East 5.8 mph - N/A   Clear
6:15 AM 32.0 °F 26.4 °F 23.0 °F 69% 30.12 in - ENE 5.8 mph - N/A   Clear
6:45 AM 32.0 °F 26.4 °F 23.0 °F 69% 30.12 in - ENE 5.8 mph - N/A   Clear
7:00 AM 32 °F - 23 °F 60% 30.15 in 8 mi ENE 4.5 mph - -   Partly Cloudy
7:15 AM 33.8 °F 28.6 °F 23.0 °F 65% 30.12 in - East 5.8 mph - N/A   Clear
7:45 AM 35.6 °F 31.7 °F 24.8 °F 65% 30.12 in - East 4.6 mph - N/A   Clear
8:15 AM 39.2 °F 35.0 °F 24.8 °F 56% 30.12 in - East 5.8 mph - N/A   Clear
8:45 AM 44.6 °F 42.2 °F 26.6 °F 49% 30.12 in - ESE 4.6 mph - N/A   Clear
9:00 AM - - - N/A% - - ESE 6.9 mph - N/A   Clear
9:15 AM 48.2 °F - 26.6 °F 43% 30.09 in - South 10.4 mph - N/A   Clear
9:45 AM 51.8 °F - 28.4 °F 41% 30.09 in - South 17.3 mph - N/A   Clear
9:54 AM 51.8 °F - 28.4 °F 41% 30.09 in - South 18.4 mph 29.9 mph N/A   Unknown
10:15 AM 51.8 °F - 28.4 °F 41% 30.09 in - South 20.7 mph - N/A   Clear
10:45 AM 51.8 °F - 30.2 °F 44% 30.09 in - South 17.3 mph - N/A   Clear
11:15 AM 53.6 °F - 32.0 °F 44% 30.06 in - South 17.3 mph - N/A   Clear
11:45 AM 53.6 °F - 30.2 °F 41% 30.06 in - SSW 19.6 mph - N/A   Clear
12:00 PM - - - N/A% - - SSW 17.3 mph - N/A   Clear
12:15 PM 53.6 °F - 30.2 °F 41% 30.06 in - SSW 19.6 mph - N/A   Clear
12:45 PM 57.2 °F - 32.0 °F 38% 30.04 in - SSW 17.3 mph - N/A   Clear
1:15 PM 55.4 °F - 32.0 °F 41% 30.04 in - South 15.0 mph - N/A   Clear
1:45 PM 55.4 °F - 32.0 °F 41% 30.01 in - South 16.1 mph - N/A   Clear
2:15 PM 55.4 °F - 32.0 °F 41% 30.01 in - South 15.0 mph - N/A   Clear
2:45 PM 55.4 °F - 33.8 °F 44% 29.98 in - South 12.7 mph - N/A   Clear
3:15 PM 57.2 °F - 33.8 °F 41% 29.98 in - South 16.1 mph - N/A   Clear
3:45 PM 55.4 °F - 35.6 °F 47% 29.98 in - South 12.7 mph - N/A   Clear
4:15 PM 53.6 °F - 35.6 °F 51% 29.95 in - South 10.4 mph - N/A   Clear
4:45 PM 53.6 °F - 37.4 °F 54% 29.95 in - South 8.1 mph - N/A   Clear
5:00 PM - - - N/A% - - North - - N/A   Unknown
7:00 PM 51 °F - 36 °F 45% 29.94 in - SSE 6.7 mph - -  
9:00 PM 48.2 °F - 35.6 °F 62% 29.92 in - South 6.9 mph - N/A   Unknown